1505044800.67,16414,15.88,73582.0,7.85,5.15,5.27,0,*70
1505044801.91,16415,15.88,73588.8,7.87,5.23,5.27,0,*76
1505044803.12,16416,15.88,73588.8,7.87,5.11,5.15,0,*75
1505044804.35,16417,15.94,73592.3,7.87,4.79,4.85,0,*73
1505044805.54,16418,15.88,73590.8,7.93,5.07,5.11,0,*7D
1505044806.71,16419,15.88,73590.8,7.89,4.81,4.89,0,*78
1505044807.92,16420,15.88,73578.0,7.93,4.75,4.81,0,*7A
1505044809.13,16421,15.88,73578.0,7.93,4.93,5.11,0,*7B
1505044810.32,16422,15.94,73582.3,7.93,5.11,5.19,0,*7B
1505044811.56,16423,15.88,73578.8,7.95,5.01,5.11,0,*75
1505044812.76,16424,15.94,73582.8,7.95,4.49,4.49,0,*73
1505044813.96,16425,15.88,73576.0,7.95,4.11,4.15,0,*76
1505044815.18,16426,15.94,73570.8,7.95,4.37,4.41,0,*70
1505044816.41,16427,15.88,73568.3,7.95,4.59,4.53,0,*7A
1505044817.67,16428,15.88,73568.3,7.95,4.63,4.71,0,*7C
1505044818.91,16429,15.94,73574.0,7.95,4.31,4.37,0,*78
1505044820.15,16430,15.88,73570.8,7.95,4.85,4.93,0,*71
1505044821.33,16431,15.94,73578.5,7.97,4.85,4.85,0,*75
1505044822.59,16432,15.88,73576.3,7.95,4.71,4.75,0,*70
1505044823.82,16433,15.88,73576.8,7.95,4.75,4.81,0,*7E
1505044825.03,16434,15.88,73582.8,7.97,4.85,4.97,0,*73
1505044826.21,16435,15.94,73582.3,7.97,4.53,4.45,0,*76
1505044827.39,16436,15.88,73574.0,7.97,4.45,4.45,0,*72
1505044828.57,16437,15.88,73566.8,7.97,4.45,4.45,0,*73
1505044829.76,16438,15.88,73570.5,7.97,4.33,4.33,0,*7C
1505044830.99,16439,15.88,73564.0,7.95,3.71,3.81,0,*70
1505044832.2,16440,15.88,73570.0,7.95,4.11,4.15,0,*75
1505044833.4,16441,15.88,73576.8,7.95,4.11,4.11,0,*70
1505044834.63,16442,15.88,73576.5,7.95,3.93,4.01,0,*7F
1505044835.89,16443,15.88,73576.0,7.95,4.01,4.05,0,*76
1505044837.1,16444,15.88,73572.8,7.95,3.81,3.89,0,*7D
1505044838.28,16445,15.94,73576.8,7.93,3.89,3.89,0,*72
1505044839.47,16446,15.94,73580.3,7.93,4.37,4.49,0,*78
1505044840.71,16447,15.88,73582.0,7.93,4.31,4.31,0,*70
1505044841.89,16448,15.88,73584.3,7.93,4.41,4.37,0,*7E
1505044843.1,16449,15.88,73588.3,7.93,4.53,4.59,0,*74
1505044844.31,16450,15.88,73586.5,7.93,4.71,4.81,0,*79
1505044845.52,16451,15.94,73592.8,7.93,4.97,5.11,0,*78
1505044846.76,16452,15.88,73592.0,7.93,4.93,4.97,0,*70
1505044847.95,16453,15.94,73594.0,7.93,5.07,5.19,0,*7A
1505044849.17,16454,15.88,73588.5,7.95,5.19,5.23,0,*7D
1505044850.37,16455,15.88,73586.3,7.97,5.15,5.27,0,*76
1505044851.57,16456,15.88,73582.5,8.01,5.15,5.27,0,*75
1505044852.77,16457,15.88,73584.3,7.99,5.37,5.45,0,*7E
1505044853.99,16458,15.88,73586.5,7.99,5.37,5.55,0,*70
1505044855.19,16459,15.88,73588.8,7.99,5.37,5.49,0,*7C
1505044856.37,16460,15.88,73586.3,8.01,5.19,5.29,0,*72
1505044857.57,16461,15.94,73588.5,8.01,5.19,5.27,0,*7D
1505044858.83,16462,15.88,73584.3,8.03,4.97,5.05,0,*7B
1505044860.05,16463,15.88,73584.8,8.03,5.19,5.23,0,*79
1505044861.26,16464,15.94,73588.5,8.03,5.19,5.33,0,*7F
1505044862.43,16465,15.88,73586.0,8.05,5.07,5.29,0,*7C
1505044863.6,16466,15.88,73588.0,8.05,5.29,5.33,0,*78
1505044864.78,16467,15.88,73590.3,8.05,5.11,5.33,0,*72
1505044865.95,16468,15.88,73594.0,8.05,5.45,5.63,0,*79
1505044867.17,16469,15.88,73590.8,8.11,5.41,5.51,0,*78
1505044868.37,16470,15.88,73586.5,8.11,5.15,5.29,0,*7E
1505044869.55,16471,15.88,73580.0,8.09,5.11,5.29,0,*72
1505044870.75,16472,15.88,73580.0,8.09,4.89,5.05,0,*7F
1505044871.97,16473,15.88,73588.0,8.09,4.89,5.01,0,*7A
1505044873.2,16474,15.88,73584.5,8.09,5.01,5.05,0,*78
1505044874.4,16475,15.88,73586.0,8.09,4.41,4.59,0,*74
1505044875.65,16476,15.88,73580.0,8.07,4.67,4.79,0,*7F
1505044876.82,16477,15.88,73582.3,8.09,4.81,4.89,0,*77
1505044878.05,16478,15.88,73584.0,8.11,4.89,5.05,0,*7C
1505044879.29,16479,15.88,73586.0,8.11,4.89,5.01,0,*79
1505044880.55,16480,15.94,73572.0,8.11,4.67,4.71,0,*79
1505044881.78,16481,15.88,73570.8,8.11,4.31,4.45,0,*7C
1505044883.01,16482,15.88,73576.8,8.09,4.59,4.67,0,*78
1505044884.22,16483,15.88,73574.3,8.09,4.31,4.45,0,*77
1505044885.42,16484,15.88,73576.8,8.07,4.53,4.57,0,*79
1505044886.66,16485,15.88,73580.0,8.09,4.71,4.79,0,*7A
1505044887.83,16486,15.88,73572.5,8.09,4.81,4.81,0,*71
1505044889.06,16487,15.88,73576.5,8.09,4.79,4.79,0,*70
1505044890.26,16488,15.88,73574.0,8.11,4.45,4.49,0,*7A
1505044891.49,16489,15.88,73576.3,8.09,4.59,4.59,0,*7E
1505044892.74,16490,15.88,73574.0,8.07,4.05,4.05,0,*78
1505044893.95,16491,15.88,73574.8,8.09,4.19,4.31,0,*7D
1505044895.15,16492,15.88,73574.0,8.11,4.11,4.23,0,*7C
1505044896.35,16493,15.88,73574.3,8.07,4.45,4.53,0,*7C
1505044897.58,16494,15.88,73576.5,8.07,4.53,4.63,0,*7F
1505044898.81,16495,15.88,73578.5,8.07,4.89,5.01,0,*7C
1505044899.99,16496,15.88,73580.0,8.09,5.37,5.59,0,*78
1505044901.18,16497,15.88,73584.5,8.09,5.41,5.73,0,*70
1505044902.36,16498,15.88,73588.3,8.09,5.37,5.63,0,*7F
1505044903.56,16499,15.88,73592.0,8.15,5.23,5.51,0,*77
1505044904.75,16500,15.88,73590.8,8.15,5.29,5.55,0,*78
1505044905.95,16501,15.88,73588.8,8.15,5.23,5.55,0,*73
1505044907.17,16502,15.88,73588.0,8.17,5.37,5.55,0,*77
1505044908.37,16503,15.88,73586.8,8.19,5.37,5.77,0,*78
1505044909.57,16504,15.88,73588.0,8.19,5.45,5.89,0,*7B
1505044910.74,16505,15.88,73586.8,8.19,5.49,5.99,0,*77
1505044911.95,16506,15.88,73586.0,8.23,5.01,5.59,0,*7D
1505044913.15,16507,15.88,73576.3,8.23,5.05,5.71,0,*72
1505044914.35,16508,15.88,73578.5,8.23,5.05,5.71,0,*7D
1505044915.55,16509,15.88,73584.3,8.23,5.11,5.85,0,*72
1505044916.72,16510,15.88,73578.8,8.27,5.23,5.99,0,*72
1505044917.94,16511,15.88,73580.8,8.27,5.55,6.13,0,*73
1505044919.16,16512,15.88,73586.5,8.29,5.23,5.93,0,*74
1505044920.39,16513,15.88,73586.5,8.29,5.19,5.77,0,*76
1505044921.62,16514,15.88,73588.3,8.29,4.63,5.11,0,*7D
1505044922.79,16515,15.88,73584.8,8.31,4.41,4.89,0,*75
1505044924.02,16516,15.88,73584.5,8.29,3.81,4.31,0,*77
1505044925.23,16517,15.88,73584.3,8.31,3.75,4.33,0,*76
1505044926.43,16518,15.88,73578.0,8.33,3.63,4.33,0,*7C
1505044927.63,16519,15.88,73568.3,8.31,3.63,4.31,0,*7D
1505044928.82,16520,15.88,73562.5,8.31,3.53,4.11,0,*76
1505044930.01,16521,15.88,73564.8,8.29,3.55,4.19,0,*70
1505044931.22,16522,15.88,73562.8,8.29,3.25,3.89,0,*7A
1505044932.44,16523,15.88,73560.8,8.31,3.03,4.01,0,*71
1505044933.64,16524,15.88,73570.5,8.31,2.91,4.01,0,*7C
1505044934.83,16525,15.88,73570.5,8.31,2.77,3.85,0,*7E
1505044936.03,16526,15.88,73578.3,8.31,2.81,4.11,0,*7E
1505044937.25,16527,15.88,73582.3,8.31,2.69,3.97,0,*70
1505044938.47,16528,15.88,73582.8,8.29,2.35,3.37,0,*75
1505044939.67,16529,15.88,73574.0,8.31,2.89,3.81,0,*77
1505044940.87,16530,15.88,73570.8,8.29,2.95,3.59,0,*7E
1505044942.1,16531,15.88,73560.5,8.29,3.23,3.89,0,*7E
1505044943.34,16532,15.88,73550.8,8.29,3.23,3.81,0,*75
1505044944.57,16533,15.88,73554.8,8.29,3.25,3.71,0,*7D
1505044945.8,16534,15.88,73560.0,8.29,3.49,4.37,0,*75
1505044947.03,16535,15.88,73570.3,8.31,3.71,4.71,0,*74
1505044948.23,16536,15.88,73578.5,8.31,3.93,4.93,0,*77
1505044949.47,16537,15.88,73578.8,8.33,3.81,4.71,0,*7B
1505044950.69,16538,15.88,73576.0,8.33,3.49,4.57,0,*74
1505044951.92,16539,15.88,73576.5,8.33,4.23,5.27,0,*78
1505044953.12,16540,15.88,73582.8,8.35,4.45,5.55,0,*75
1505044954.29,16541,15.88,73582.0,8.35,4.57,5.37,0,*73
1505044955.52,16542,15.88,73582.5,8.41,4.59,5.29,0,*72
1505044956.72,16543,15.88,73578.5,8.39,4.79,5.33,0,*75
1505044957.95,16544,15.88,73570.8,8.41,5.07,5.55,0,*75
1505044959.14,16545,15.88,73570.8,8.45,5.27,5.49,0,*7F
1505044960.35,16546,15.88,73564.3,8.41,5.07,5.23,0,*76
1505044961.57,16547,15.88,73570.3,8.45,4.71,4.85,0,*7E
1505044962.81,16548,15.88,73568.3,8.45,4.71,4.93,0,*76
1505044964.05,16549,15.88,73566.8,8.45,4.79,4.93,0,*7F
1505044965.25,16550,15.88,73566.3,8.41,4.85,5.07,0,*7C
1505044966.46,16551,15.88,73576.5,8.45,5.07,5.27,0,*70
1505044967.67,16552,15.88,73580.8,8.45,5.05,5.29,0,*7F
1505044968.88,16553,15.88,73578.0,8.45,5.05,5.29,0,*7E
1505044970.05,16554,15.88,73578.0,8.45,5.15,5.37,0,*77
1505044971.29,16555,15.88,73572.0,8.45,4.79,4.93,0,*72
1505044972.53,16556,15.88,73568.5,8.47,4.81,4.97,0,*70
1505044973.76,16557,15.88,73576.5,8.47,4.97,5.19,0,*71
1505044974.96,16558,15.88,73572.3,8.47,5.07,5.29,0,*75
1505044976.19,16559,15.88,73582.5,8.47,5.07,5.27,0,*7A
1505044977.4,16560,15.88,73594.5,8.47,5.07,5.29,0,*7E
1505044978.66,16561,15.88,73578.5,8.47,4.59,4.79,0,*71
1505044979.86,16562,15.88,73568.8,8.51,4.15,4.33,0,*73
1505044981.08,16563,15.88,73570.3,8.47,4.11,4.37,0,*75
1505044982.26,16564,15.88,73572.3,8.49,4.11,4.49,0,*75
1505044983.47,16565,15.88,73576.3,8.47,3.85,4.33,0,*7D
1505044984.7,16566,15.88,73572.0,8.47,3.79,4.27,0,*78
1505044985.92,16567,15.88,73568.3,8.47,3.79,4.27,0,*79
1505044987.14,16568,15.88,73582.3,8.47,3.89,4.37,0,*78
1505044988.32,16569,15.88,73590.3,8.45,4.49,4.85,0,*79
1505044989.53,16570,15.88,73588.0,8.47,4.37,4.81,0,*7E
1505044990.76,16571,15.88,73584.8,8.47,4.15,4.79,0,*78
1505044991.97,16572,15.88,73584.0,8.47,4.49,5.19,0,*75
1505044993.2,16573,15.88,73586.3,8.47,4.67,5.37,0,*74
1505044994.41,16574,15.88,73576.3,8.51,4.41,5.11,0,*74
1505044995.59,16575,15.88,73576.8,8.53,3.81,4.57,0,*7F
1505044996.8,16576,15.88,73576.5,8.55,4.19,5.07,0,*78
1505044998.03,16577,15.88,73574.3,8.55,4.19,4.97,0,*71
1505044999.27,16578,15.88,73572.8,8.55,3.75,4.37,0,*79
1505045000.49,16579,15.88,73576.5,8.55,2.85,3.63,0,*70
1505045001.7,16580,15.88,73574.8,8.53,2.91,3.75,0,*72
1505045002.9,16581,15.88,73576.0,8.53,2.77,3.59,0,*75
1505045004.16,16582,15.88,73570.3,8.55,2.69,3.45,0,*72
1505045005.36,16583,15.88,73574.8,8.49,2.13,2.95,0,*7F
1505045006.59,16584,15.88,73566.0,8.49,2.73,3.45,0,*72
1505045007.82,16585,15.88,73576.8,8.47,2.69,3.29,0,*7C
1505045009.02,16586,15.88,73578.0,8.47,3.55,4.15,0,*79
1505045010.25,16587,15.88,73586.3,8.47,4.37,5.05,0,*7B
1505045011.52,16588,15.88,73584.8,8.47,4.71,5.51,0,*77
1505045012.71,16589,15.88,73588.8,8.49,4.37,5.19,0,*76
1505045013.96,16590,15.88,73588.0,8.51,3.49,4.31,0,*72
1505045015.19,16591,15.88,73584.5,8.51,2.99,3.75,0,*78
1505045016.42,16592,15.88,73588.0,8.53,2.55,3.33,0,*7B
1505045017.64,16593,15.88,73588.3,8.49,3.89,4.71,0,*70
1505045018.84,16594,15.88,73592.0,8.55,4.23,4.81,0,*72
1505045020.04,16595,15.88,73600.8,8.53,4.57,5.05,0,*7B
1505045021.23,16596,15.88,73600.8,8.57,4.89,5.19,0,*72
1505045022.44,16597,15.88,73596.3,8.57,4.37,4.67,0,*7E
1505045023.62,16598,15.88,73600.0,8.57,4.19,4.49,0,*71
1505045024.79,16599,15.88,73592.5,8.57,4.11,4.27,0,*70
1505045026.0,16600,15.88,73592.8,8.57,3.79,3.89,0,*79
1505045027.21,16601,15.88,73594.3,8.59,4.15,4.27,0,*78
1505045028.41,16602,15.88,73590.3,8.57,4.79,4.81,0,*73
1505045029.58,16603,15.88,73588.8,8.57,4.27,4.27,0,*75
1505045030.85,16604,15.88,73590.0,8.63,4.05,4.05,0,*75
1505045032.05,16605,15.88,73582.8,8.63,3.85,3.85,0,*74
1505045033.3,16606,15.88,73576.8,8.63,3.97,4.05,0,*7B
1505045034.52,16607,15.88,73582.5,8.63,3.97,4.19,0,*77
1505045035.73,16608,15.88,73582.3,8.63,4.33,4.45,0,*78
1505045036.94,16609,15.88,73586.8,8.63,4.41,4.53,0,*7B
1505045038.14,16610,15.88,73586.3,8.63,4.07,4.15,0,*73
1505045039.4,16611,15.88,73580.5,8.63,3.37,3.49,0,*78
1505045040.64,16612,15.88,73576.8,8.63,3.15,3.25,0,*71
1505045041.87,16613,15.88,73580.8,8.57,2.69,2.81,0,*72
1505045043.06,16614,15.88,73576.8,8.57,3.55,3.67,0,*72
1505045044.28,16615,15.88,73578.8,8.53,4.31,4.45,0,*75
1505045045.51,16616,15.88,73576.0,8.57,4.59,4.79,0,*73
1505045046.69,16617,15.88,73580.5,8.57,5.07,5.15,0,*73
1505045047.92,16618,15.88,73582.0,8.57,4.75,4.79,0,*73
1505045049.16,16619,15.88,73578.3,8.59,4.53,4.63,0,*73
1505045050.33,16620,15.88,73574.5,8.57,4.45,4.49,0,*78
1505045051.53,16621,15.88,73574.5,8.57,3.85,4.01,0,*7E
1505045052.74,16622,15.88,73578.8,8.57,3.89,4.01,0,*71
1505045053.92,16623,15.88,73578.8,8.57,4.11,4.33,0,*77
1505045055.15,16624,15.88,73580.3,8.57,3.79,4.01,0,*78
1505045056.36,16625,15.88,73588.5,8.55,4.11,4.37,0,*77
1505045057.57,16626,15.88,73592.0,8.55,4.81,5.07,0,*7F
1505045058.79,16627,15.88,73586.5,8.55,5.15,5.27,0,*70
1505045060.0,16628,15.88,73596.3,8.55,5.19,5.41,0,*73
1505045061.2,16629,15.88,73596.5,8.57,4.93,5.15,0,*72
1505045062.45,16630,15.88,73606.5,8.59,4.71,5.07,0,*7B
1505045063.65,16631,15.88,73596.8,8.57,4.01,4.57,0,*77
1505045064.89,16632,15.88,73598.3,8.59,3.71,4.41,0,*7D
1505045066.12,16633,15.88,73596.0,8.57,4.01,4.67,0,*76
1505045067.35,16634,15.88,73602.5,8.59,4.05,4.81,0,*73
1505045068.61,16635,15.88,73594.3,8.59,4.01,4.71,0,*79
1505045069.81,16636,15.88,73592.8,8.63,3.85,4.53,0,*78
1505045071.08,16637,15.88,73590.5,8.63,4.31,4.97,0,*79
1505045072.29,16638,15.88,73588.8,8.67,4.49,5.19,0,*7A
1505045073.55,16639,15.88,73586.5,8.67,3.97,4.71,0,*70
1505045074.75,16640,15.88,73586.3,8.67,3.89,4.81,0,*7E
1505045076.01,16641,15.88,73588.0,8.67,4.01,4.71,0,*77
1505045077.24,16642,15.88,73590.0,8.67,3.97,4.89,0,*7B
1505045078.45,16643,15.88,73586.5,8.69,3.75,4.57,0,*7B
1505045079.68,16644,15.88,73590.3,8.69,4.01,4.59,0,*76
1505045080.92,16645,15.88,73592.0,8.69,4.67,4.93,0,*71
1505045082.15,16646,15.88,73594.3,8.69,4.59,4.79,0,*7B
1505045083.34,16647,15.88,73586.3,8.69,4.37,4.45,0,*7D
1505045084.56,16648,15.88,73586.8,8.71,4.01,4.15,0,*7B
1505045085.76,16649,15.88,73598.5,8.71,4.33,4.49,0,*72
1505045087.0,16650,15.88,73596.3,8.71,4.93,5.07,0,*7B
1505045088.2,16651,15.88,73596.8,8.73,5.11,5.27,0,*71
1505045089.37,16652,15.88,73598.8,8.73,5.15,5.33,0,*73
1505045090.55,16653,15.88,73598.3,8.73,5.37,5.49,0,*7F
1505045091.76,16654,15.88,73590.3,8.75,5.27,5.49,0,*7F
1505045093.0,16655,15.88,73588.8,8.77,4.93,5.15,0,*7B
1505045094.24,16656,15.88,73584.8,8.77,4.93,5.15,0,*78
1505045095.41,16657,15.88,73590.8,8.79,5.15,5.41,0,*79
1505045096.61,16658,15.88,73596.8,8.79,5.29,5.55,0,*7C
1505045097.84,16659,15.88,73604.3,8.81,5.33,5.51,0,*75
1505045099.07,16660,15.88,73606.8,8.81,5.33,5.51,0,*7F
1505045100.24,16661,15.88,73588.3,8.87,5.49,5.63,0,*74
1505045101.41,16662,15.88,73578.3,8.87,5.15,5.37,0,*7F
1505045102.58,16663,15.88,73580.3,8.87,5.11,5.29,0,*75
1505045103.81,16664,15.88,73580.3,8.87,5.05,5.27,0,*79
1505045105.04,16665,15.88,73580.5,8.91,4.97,5.05,0,*75
1505045106.27,16666,15.88,73588.0,8.91,4.71,4.75,0,*78
1505045107.53,16667,15.88,73592.0,8.93,4.97,5.05,0,*75
1505045108.76,16668,15.88,73598.3,8.93,4.85,4.93,0,*77
1505045109.96,16669,15.88,73592.8,8.93,4.85,4.85,0,*71
1505045111.19,16670,15.88,73588.5,8.93,4.71,4.85,0,*72
1505045112.39,16671,15.88,73588.5,8.93,4.23,4.23,0,*78
1505045113.64,16672,15.88,73580.0,8.93,4.01,4.05,0,*7F
1505045114.85,16673,15.88,73580.3,8.93,4.27,4.33,0,*7F
1505045116.01,16674,15.88,73582.5,8.95,4.49,4.49,0,*7B
1505045117.21,16675,15.88,73584.0,8.93,4.37,4.23,0,*79
1505045118.42,16676,15.88,73582.8,8.93,4.27,4.15,0,*7E
1505045119.64,16677,15.88,73578.8,8.93,4.01,3.81,0,*71
1505045120.82,16678,15.88,73576.3,8.91,3.89,3.89,0,*73
1505045122.0,16679,15.88,73576.3,8.91,3.81,3.81,0,*72
1505045123.25,16680,15.88,73582.3,8.89,3.97,4.01,0,*75
1505045124.51,16681,15.88,73580.3,8.89,4.59,4.71,0,*76
1505045125.76,16682,15.88,73584.5,8.89,4.93,4.93,0,*7F
1505045126.94,16683,15.88,73588.0,8.91,5.15,5.15,0,*77
1505045128.16,16684,15.88,73590.5,8.91,5.27,5.27,0,*70
1505045129.38,16685,15.88,73590.5,8.95,5.55,5.55,0,*75
1505045130.55,16686,15.88,73588.0,8.95,6.07,6.03,0,*72
1505045131.73,16687,15.88,73592.5,8.95,6.25,6.25,0,*77
1505045132.95,16688,15.88,73594.3,8.99,6.53,6.53,0,*74
1505045134.17,16689,15.88,73590.0,8.99,6.65,6.65,0,*75
1505045135.34,16690,15.88,73592.8,9.03,7.05,7.01,0,*7B
1505045136.57,16691,15.88,73592.8,9.09,7.15,7.19,0,*78
1505045137.75,16692,15.88,73598.8,9.13,7.01,6.97,0,*72
1505045138.98,16693,15.88,73598.3,9.15,6.69,6.57,0,*76
1505045140.24,16694,15.88,73600.8,9.15,6.47,6.35,0,*79
1505045141.45,16695,15.88,73602.0,9.17,6.39,6.21,0,*76
1505045142.67,16696,15.88,73602.3,9.19,6.75,6.53,0,*76
1505045143.88,16697,15.88,73598.3,9.21,7.09,6.91,0,*78
1505045145.08,16698,15.88,73600.8,9.25,7.37,7.27,0,*72
1505045146.33,16699,15.88,73600.5,9.31,7.83,7.73,0,*78
1505045147.58,16700,15.88,73604.5,9.35,7.77,7.65,0,*71
1505045148.8,16701,15.88,73606.8,9.39,7.47,7.59,0,*70
1505045150.01,16702,15.88,73594.5,9.45,8.01,8.05,0,*73
1505045151.2,16703,15.88,73596.3,9.47,8.69,8.59,0,*77
1505045152.43,16704,15.88,73584.5,9.55,8.93,8.33,0,*7A
1505045153.63,16705,15.88,73580.0,9.61,7.41,6.93,0,*78
1505045154.89,16706,15.88,73580.8,9.65,6.43,5.85,0,*78
1505045156.09,16707,15.88,73584.3,9.67,5.73,5.63,0,*73
1505045157.29,16708,15.88,73580.8,9.69,5.41,5.29,0,*7D
1505045158.49,16709,15.88,73580.8,9.71,4.89,4.79,0,*74
1505045159.71,16710,15.88,73576.8,9.71,4.67,4.31,0,*70
1505045160.91,16711,15.88,73580.0,9.71,4.27,3.79,0,*7E
1505045162.09,16712,15.88,73578.5,9.71,3.93,3.25,0,*7C
1505045163.34,16713,15.88,73576.5,9.69,3.33,2.59,0,*74
1505045164.57,16714,15.88,73584.0,9.69,3.07,2.35,0,*7E
1505045165.75,16715,15.88,73590.0,9.67,3.89,3.55,0,*70
1505045166.97,16716,15.88,73592.8,9.67,3.45,3.53,0,*75
1505045168.2,16717,15.88,73592.0,9.69,2.85,3.29,0,*7A
1505045169.44,16718,15.88,73592.8,9.69,2.69,2.85,0,*70
1505045170.69,16719,15.88,73588.8,9.69,2.25,2.73,0,*70
1505045171.92,16720,15.88,73594.0,9.71,2.25,2.77,0,*77
1505045173.14,16721,15.88,73594.5,9.73,0.97,1.89,0,*4D
1505045174.33,16722,15.88,73590.8,9.71,-0.65,0.37,0,*58
1505045175.55,16723,15.88,73586.8,9.71,-0.93,0.21,0,*57
1505045176.77,16724,15.88,73588.5,9.69,0.21,1.05,0,*4A
1505045177.98,16725,15.88,73586.8,9.69,0.05,0.83,0,*42
1505045179.18,16726,15.88,73584.3,9.67,-0.11,0.63,0,*59
1505045180.4,16727,15.88,73586.8,9.71,-0.89,0.13,0,*59
1505045181.63,16728,15.88,73584.0,9.65,-1.33,0.17,0,*67
1505045182.89,16729,15.88,73588.5,9.65,-1.83,-0.27,0,*43
1505045184.08,16730,15.88,73588.5,9.63,-0.29,0.95,0,*58
1505045185.27,16731,15.88,73590.5,9.59,2.35,3.19,0,*75
1505045186.48,16732,15.88,73590.5,9.59,3.11,4.11,0,*7E
1505045187.71,16733,15.88,73596.0,9.61,3.15,4.53,0,*76
1505045188.91,16734,15.88,73600.0,9.61,2.99,4.49,0,*7F
1505045190.12,16735,15.88,73600.0,9.63,3.03,4.53,0,*75
1505045191.35,16736,15.88,73602.8,9.61,3.25,4.67,0,*77
1505045192.62,16737,15.88,73602.5,9.61,3.15,4.67,0,*75
1505045193.84,16738,15.88,73596.8,9.61,3.33,4.85,0,*72
1505045195.1,16739,15.88,73602.3,9.61,3.49,4.79,0,*7D
1505045196.3,16740,15.88,73602.5,9.59,3.75,4.81,0,*70
1505045197.56,16741,15.88,73598.3,9.61,3.79,4.97,0,*71
1505045198.83,16742,15.88,73602.3,9.61,3.79,4.75,0,*7E
1505045200.04,16743,15.88,73600.5,9.61,3.89,4.85,0,*7F
1505045201.24,16744,15.88,73598.0,9.61,3.81,4.85,0,*70
1505045202.42,16745,15.88,73598.5,9.59,3.93,4.81,0,*7D
1505045203.61,16746,15.88,73600.3,9.59,4.27,5.07,0,*79
1505045204.81,16747,15.88,73598.0,9.59,4.33,5.27,0,*7F
1505045206.02,16748,15.88,73594.0,9.61,4.27,5.07,0,*7C
1505045207.26,16749,15.88,73596.8,9.59,3.75,4.75,0,*72
1505045208.53,16750,15.88,73592.5,9.61,3.67,4.63,0,*75
1505045209.73,16751,15.88,73590.5,9.59,3.11,4.23,0,*7A
1505045210.96,16752,15.88,73594.8,9.61,2.77,3.59,0,*79
1505045212.18,16753,15.88,73594.0,9.59,2.21,3.23,0,*7D
1505045213.4,16754,15.88,73596.3,9.55,2.47,3.53,0,*71
1505045214.63,16755,15.88,73598.0,9.53,2.91,4.05,0,*79
1505045215.85,16756,15.88,73592.8,9.53,3.97,4.89,0,*79
1505045217.06,16757,15.88,73594.8,9.49,4.33,5.15,0,*7E
1505045218.29,16758,15.88,73596.5,9.53,4.63,5.23,0,*7A
1505045219.49,16759,15.88,73598.0,9.49,4.81,5.45,0,*7C
1505045220.72,16760,15.88,73600.3,9.49,4.63,5.07,0,*7C
1505045221.98,16761,15.88,73602.5,9.53,4.75,5.27,0,*73
1505045223.2,16762,15.88,73598.3,9.53,4.41,4.79,0,*7D
1505045224.41,16763,15.88,73602.3,9.55,4.23,4.67,0,*71
1505045225.61,16764,15.88,73602.5,9.55,4.23,4.67,0,*76
1505045226.84,16765,15.88,73610.5,9.55,4.71,5.05,0,*75
1505045228.04,16766,15.88,73608.5,9.55,4.49,5.05,0,*7D
1505045229.24,16767,15.88,73606.5,9.55,4.79,5.15,0,*7E
1505045230.47,16768,15.88,73604.8,9.57,5.01,5.59,0,*75
1505045231.68,16769,15.88,73604.5,9.55,5.27,5.73,0,*7A
1505045232.93,16770,15.88,73602.0,9.57,4.71,5.23,0,*77
1505045234.13,16771,15.88,73604.8,9.61,5.07,5.59,0,*7E
1505045235.3,16772,15.88,73602.5,9.59,5.45,5.95,0,*70
1505045236.54,16773,15.88,73602.0,9.61,4.75,5.23,0,*75
1505045237.78,16774,15.88,73602.3,9.61,4.15,4.63,0,*71
1505045239.01,16775,15.88,73598.3,9.61,4.05,4.57,0,*76
1505045240.22,16776,15.88,73604.3,9.59,4.31,4.81,0,*72
1505045241.44,16777,15.88,73600.3,9.61,4.49,4.97,0,*70
1505045242.64,16778,15.88,73598.3,9.63,4.67,5.29,0,*75
1505045243.87,16779,15.88,73596.8,9.65,4.57,5.05,0,*7F
1505045245.07,16780,15.88,73600.8,9.63,4.49,5.01,0,*74
1505045246.31,16781,15.88,73598.8,9.65,4.71,5.37,0,*7D
1505045247.54,16782,15.88,73594.3,9.65,4.93,5.59,0,*7A
1505045248.76,16783,15.88,73594.0,9.67,4.59,5.19,0,*7B
1505045249.96,16784,15.88,73588.5,9.67,4.33,4.97,0,*77
1505045251.18,16785,15.88,73590.0,9.67,4.11,4.75,0,*7A
1505045252.35,16786,15.88,73598.8,9.67,4.23,4.85,0,*77
1505045253.61,16787,15.88,73600.5,9.69,4.01,4.75,0,*77
1505045254.84,16788,15.88,73600.8,9.69,4.15,4.97,0,*71
1505045256.09,16789,15.88,73606.0,9.69,4.75,5.55,0,*79
1505045257.26,16790,15.88,73610.5,9.71,5.07,6.11,0,*7F
1505045258.49,16791,15.88,73610.8,9.73,5.45,6.35,0,*7C
1505045259.71,16792,15.88,73610.3,9.81,5.41,6.35,0,*76
1505045260.92,16793,15.88,73610.0,9.83,5.33,6.35,0,*70
1505045262.14,16794,15.88,73608.3,9.85,5.41,6.39,0,*78
1505045263.35,16795,15.88,73606.5,9.89,5.19,6.21,0,*71
1505045264.52,16796,15.88,73610.0,9.91,5.15,6.21,0,*77
1505045265.74,16797,15.88,73608.0,9.95,5.27,6.51,0,*74
1505045266.97,16798,15.88,73608.8,9.99,5.85,7.23,0,*7B
1505045268.19,16799,15.88,73608.8,10.01,5.19,6.53,0,*40
1505045269.39,16800,15.88,73606.3,10.05,5.41,6.69,0,*4F
1505045270.63,16801,15.88,73612.0,10.09,6.17,7.77,0,*4C
1505045271.87,16802,15.88,73602.0,10.13,6.91,8.51,0,*41
1505045273.13,16803,15.88,73596.8,10.23,6.39,8.13,0,*47
1505045274.39,16804,15.88,73600.5,10.27,5.73,7.61,0,*43
1505045275.62,16805,15.88,73598.3,10.31,5.81,7.79,0,*41
1505045276.84,16806,15.88,73596.8,10.37,6.03,8.19,0,*44
1505045278.05,16807,15.88,73600.5,10.39,5.49,7.61,0,*46
1505045279.28,16808,15.88,73602.8,10.49,5.81,8.09,0,*4B
1505045280.51,16809,15.88,73606.8,10.53,5.63,7.91,0,*43
1505045281.74,16810,15.88,73604.3,10.57,5.41,7.83,0,*4C
1505045282.99,16811,15.88,73602.5,10.61,5.81,8.41,0,*45
1505045284.22,16812,15.88,73600.8,10.71,5.33,7.69,0,*4B
1505045285.47,16813,15.88,73604.0,10.75,4.75,7.19,0,*4A
1505045286.7,16814,15.88,73600.3,10.79,3.93,6.69,0,*48
1505045287.94,16815,15.88,73602.0,10.83,3.37,5.93,0,*44
1505045289.18,16816,15.88,73600.3,10.89,1.97,4.71,0,*48
1505045290.43,16817,15.88,73602.5,10.91,0.95,3.67,0,*73
1505045291.64,16818,15.88,73600.0,10.93,0.29,3.19,0,*70
1505045292.84,16819,15.88,73604.5,10.85,-0.73,2.43,0,*5A
1505045294.05,16820,15.88,73610.8,10.89,-0.81,2.47,0,*55
1505045295.23,16821,15.88,73612.8,10.89,-1.33,2.35,0,*69
1505045296.46,16822,15.88,73608.3,10.85,-2.03,1.93,0,*69
1505045297.69,16823,15.88,73608.0,10.89,-2.63,1.71,0,*6E
1505045298.89,16824,15.88,73610.8,10.85,-3.23,1.43,0,*61
1505045300.1,16825,15.88,73606.5,10.85,-3.75,1.21,0,*67
1505045301.33,16826,15.88,73614.0,10.85,-3.67,1.43,0,*63
1505045302.54,16827,15.88,73610.5,10.85,-3.87,1.33,0,*6B
1505045303.72,16828,15.88,73608.0,10.85,-4.33,0.97,0,*53
1505045304.96,16829,15.88,73604.8,10.83,-4.81,0.71,0,*55
1505045306.19,16830,15.88,73606.5,10.83,-5.35,0.37,0,*51
1505045307.44,16831,15.88,73604.5,10.83,-5.85,0.29,0,*54
1505045308.67,16832,15.88,73602.0,10.79,-5.97,0.33,0,*5A
1505045309.87,16833,15.88,73602.3,10.77,-5.89,0.43,0,*5D
1505045311.07,16834,15.88,73602.5,10.77,-5.89,0.43,0,*5A
1505045312.27,16835,15.88,73602.0,10.73,-5.43,0.75,0,*5C
1505045313.47,16836,15.88,73604.8,10.73,-5.35,0.87,0,*53
1505045314.74,16837,15.88,73600.3,10.71,-5.07,0.91,0,*56
1505045315.97,16838,15.88,73596.8,10.69,-5.19,0.59,0,*5B
1505045317.15,16839,15.88,73598.3,10.69,-4.45,1.01,0,*6E
1505045318.32,16840,15.88,73596.3,10.67,-4.13,0.97,0,*53
1505045319.53,16841,15.88,73598.0,10.59,-3.07,1.63,0,*67
1505045320.73,16842,15.88,73600.0,10.59,-2.43,1.89,0,*61
1505045321.97,16843,15.88,73608.8,10.59,-1.99,1.67,0,*64
1505045323.14,16844,15.88,73608.0,10.55,-0.61,2.35,0,*5D
1505045324.36,16845,15.88,73604.0,10.51,0.37,2.85,0,*7D
1505045325.6,16846,15.88,73600.3,10.51,1.09,3.07,0,*49
1505045326.85,16847,15.88,73606.0,10.49,1.51,2.85,0,*47
1505045328.08,16848,15.88,73610.8,10.49,1.93,2.99,0,*4B